Weather History for Warsaw, IN

Change the Weather History Date:

Tuesday, April 22, 2014

  Actual Average Record
Temperature  
Mean Temperature 49 °F -  
Max Temperature 59 °F 61 °F 86 °F (1980)
Min Temperature 37 °F 40 °F 23 °F (1978)
Degree Days  
Heating Degree Days 16    
Moisture  
Dew Point 38 °F    
Average Humidity 70    
Maximum Humidity 100    
Minimum Humidity 47    
Precipitation  
Precipitation 0.14 in - - ()
Sea Level Pressure  
Sea Level Pressure 29.89 in    
Wind  
Wind Speed 12 mph (NW)    
Max Wind Speed 23 mph    
Max Gust Speed 31 mph    
Visibility 8 miles    
Events Rain    
Averages and records for this station are not official NWS values.
T = Trace of Precipitation, MM = Missing Value Source: NWS Daily Summary

Daily Weather History Graph

Daily Weather History Graph

Search for Another Location

Airport:

Trip Planner

Search our weather history database for the weather conditions in past years. The results will help you decide how hot, cold, wet, or windy it might be!

Date:

Astronomy

Apr. 22, 2014 Rise Set
Actual Time 6:53 AM EDT 8:31 PM EDT
Civil Twilight 6:24 AM EDT 9:00 PM EDT
Nautical Twilight 5:48 AM EDT 9:35 PM EDT
Astronomical Twilight 5:11 AM EDT 10:13 PM EDT
Moon 2:46 AM EDT (4/22) 1:27 PM EDT (4/22)
Length of Visible Light 14h 36m
Length of Day
13h 37m
Last Quarter, 46% of the Moon is Illuminated
Apr 22
Last Quarter
Apr 29
New
May 6
First Quarter
May 14
Full
May 21
Last Quarter

Hourly Weather History & Observations

Time (EDT) Temp. Windchill Dew Point Humidity Pressure Visibility Wind Dir Wind Speed Gust Speed Precip Events Conditions
12:15 AM 59.0 °F - 53.6 °F 82% 29.81 in 7.0 mi WSW 6.9 mph - N/A   Drizzle
12:35 AM 59.0 °F - 55.4 °F 88% 29.81 in 7.0 mi WSW 8.1 mph - N/A Rain Rain
12:55 AM 57.2 °F - 55.4 °F 94% 29.80 in 7.0 mi WSW 6.9 mph - 0.02 in Rain Light Rain
1:15 AM 57.2 °F - 55.4 °F 94% 29.80 in 3.0 mi WSW 4.6 mph - 0.10 in Rain Heavy Rain
1:35 AM 57.2 °F - 55.4 °F 94% 29.79 in 5.0 mi WSW 9.2 mph - 0.12 in Rain Light Rain
1:55 AM 57.2 °F - 55.4 °F 94% 29.79 in 5.0 mi West 6.9 mph - 0.12 in   Overcast
2:15 AM 57.2 °F - 55.4 °F 94% 29.79 in 5.0 mi West 12.7 mph - N/A   Overcast
2:35 AM 57.2 °F - 55.4 °F 94% 29.78 in 4.0 mi West 8.1 mph - N/A   Overcast
2:55 AM 57.2 °F - 55.4 °F 94% 29.77 in 4.0 mi West 8.1 mph - N/A   Overcast
3:15 AM 57.2 °F - 55.4 °F 94% 29.76 in 4.0 mi West 9.2 mph - N/A   Overcast
3:35 AM 57.2 °F - 55.4 °F 94% 29.76 in 4.0 mi West 8.1 mph - N/A   Overcast
3:55 AM 57.2 °F - 55.4 °F 94% 29.75 in 4.0 mi West 8.1 mph - N/A   Overcast
4:15 AM 57.2 °F - 55.4 °F 94% 29.76 in 4.0 mi WNW 13.8 mph - N/A   Overcast
4:35 AM 57.2 °F - 55.4 °F 94% 29.75 in 4.0 mi WNW 11.5 mph - N/A   Mostly Cloudy
4:55 AM 55.4 °F - 53.6 °F 94% 29.75 in 4.0 mi WNW 9.2 mph - N/A   Scattered Clouds
5:15 AM 55.4 °F - 53.6 °F 94% 29.76 in 4.0 mi WNW 23.0 mph 28.8 mph N/A   Mostly Cloudy
5:35 AM 46.4 °F 39.5 °F 44.6 °F 93% 29.78 in 3.0 mi NW 17.3 mph 23.0 mph N/A   Overcast
5:55 AM 44.6 °F 36.6 °F 44.6 °F 100% 29.79 in 3.0 mi NW 19.6 mph 26.5 mph N/A   Overcast
6:15 AM 44.6 °F 37.4 °F 44.6 °F 100% 29.80 in 5.0 mi NW 16.1 mph 21.9 mph N/A   Overcast
6:35 AM 44.6 °F 39.2 °F 42.8 °F 93% 29.81 in 5.0 mi NW 10.4 mph 18.4 mph N/A   Overcast
6:55 AM 44.6 °F 38.8 °F 42.8 °F 93% 29.82 in 10.0 mi NNW 11.5 mph 20.7 mph N/A   Overcast
7:15 AM 42.8 °F 37.0 °F 37.4 °F 81% 29.84 in 10.0 mi NW 10.4 mph 19.6 mph N/A   Mostly Cloudy
7:35 AM 42.8 °F 35.8 °F 35.6 °F 76% 29.85 in 10.0 mi NNW 13.8 mph 23.0 mph N/A   Scattered Clouds
7:55 AM 42.8 °F 36.6 °F 35.6 °F 76% 29.86 in 10.0 mi NNW 11.5 mph 19.6 mph N/A   Mostly Cloudy
8:15 AM 42.8 °F 36.6 °F 33.8 °F 70% 29.87 in 10.0 mi NNW 11.5 mph 19.6 mph N/A   Scattered Clouds
8:35 AM 42.8 °F 36.2 °F 35.6 °F 76% 29.87 in 10.0 mi NNW 12.7 mph 19.6 mph N/A   Clear
8:55 AM 42.8 °F 35.8 °F 35.6 °F 76% 29.87 in 10.0 mi NNW 13.8 mph 18.4 mph N/A   Clear
9:15 AM 44.6 °F 38.4 °F 35.6 °F 71% 29.88 in 10.0 mi NW 12.7 mph 20.7 mph N/A   Clear
9:35 AM 44.6 °F 38.8 °F 33.8 °F 66% 29.88 in 10.0 mi NNW 11.5 mph 23.0 mph N/A   Clear
9:55 AM 44.6 °F 37.2 °F 33.8 °F 66% 29.89 in 10.0 mi NNW 17.3 mph 26.5 mph N/A   Clear
10:15 AM 44.6 °F 37.8 °F 33.8 °F 66% 29.89 in 10.0 mi NNW 15.0 mph 24.2 mph N/A   Clear
10:35 AM 46.4 °F 39.0 °F 33.8 °F 62% 29.89 in 10.0 mi NNW 19.6 mph 25.3 mph N/A   Clear
10:55 AM 46.4 °F 40.1 °F 33.8 °F 62% 29.90 in 10.0 mi NNW 15.0 mph 26.5 mph N/A   Clear
11:15 AM 48.2 °F - 33.8 °F 58% 29.91 in 10.0 mi NNW 16.1 mph 19.6 mph N/A   Scattered Clouds
11:35 AM 48.2 °F - 33.8 °F 58% 29.91 in 10.0 mi NNW 16.1 mph 21.9 mph N/A   Scattered Clouds
11:55 AM 48.2 °F - 33.8 °F 58% 29.91 in 10.0 mi NNW 15.0 mph 24.2 mph N/A   Scattered Clouds
12:15 PM 48.2 °F - 32.0 °F 54% 29.92 in 10.0 mi NNW 11.5 mph 26.5 mph N/A   Scattered Clouds
12:35 PM 50.0 °F - 33.8 °F 54% 29.92 in 10.0 mi NW 17.3 mph 26.5 mph N/A   Scattered Clouds
12:55 PM 50.0 °F - 32.0 °F 50% 29.92 in 10.0 mi NW 16.1 mph 27.6 mph N/A   Scattered Clouds
1:15 PM 50.0 °F - 33.8 °F 54% 29.92 in 10.0 mi WNW 15.0 mph 24.2 mph N/A   Scattered Clouds
1:35 PM 50.0 °F - 32.0 °F 50% 29.92 in 10.0 mi NNW 15.0 mph 20.7 mph N/A   Scattered Clouds
1:55 PM 50.0 °F - 32.0 °F 50% 29.92 in 10.0 mi NW 18.4 mph 27.6 mph N/A   Scattered Clouds
2:15 PM 50.0 °F - 32.0 °F 50% 29.91 in 10.0 mi NW 20.7 mph 31.1 mph N/A   Scattered Clouds
2:35 PM 50.0 °F - 32.0 °F 50% 29.91 in 10.0 mi WNW 16.1 mph 25.3 mph N/A   Clear
2:55 PM 50.0 °F - 32.0 °F 50% 29.91 in 10.0 mi WNW 18.4 mph 26.5 mph N/A   Clear
3:15 PM 50.0 °F - 32.0 °F 50% 29.91 in 10.0 mi NW 17.3 mph 28.8 mph N/A   Clear
3:35 PM 50.0 °F - 32.0 °F 50% 29.92 in 10.0 mi NNW 16.1 mph 24.2 mph N/A   Clear
3:55 PM 50.0 °F - 32.0 °F 50% 29.92 in 10.0 mi NNW 16.1 mph 24.2 mph N/A   Clear
4:15 PM 50.0 °F - 32.0 °F 50% 29.92 in 10.0 mi NW 15.0 mph 28.8 mph N/A   Scattered Clouds
4:35 PM 50.0 °F - 32.0 °F 50% 29.92 in 10.0 mi NW 15.0 mph 21.9 mph N/A   Scattered Clouds
4:55 PM 50.0 °F - 32.0 °F 50% 29.93 in 10.0 mi NW 18.4 mph 29.9 mph N/A   Scattered Clouds
5:15 PM 50.0 °F - 32.0 °F 50% 29.93 in 10.0 mi NNW 19.6 mph 29.9 mph N/A   Clear
5:35 PM 50.0 °F - 30.2 °F 47% 29.94 in 10.0 mi NW 18.4 mph 25.3 mph N/A   Scattered Clouds
5:55 PM 50.0 °F - 32.0 °F 50% 29.94 in 10.0 mi North 15.0 mph 23.0 mph N/A   Scattered Clouds
6:15 PM 50.0 °F - 32.0 °F 50% 29.95 in 10.0 mi NW 20.7 mph 24.2 mph N/A   Scattered Clouds
6:35 PM 50.0 °F - 32.0 °F 50% 29.95 in 10.0 mi NW 16.1 mph 24.2 mph N/A   Clear
6:55 PM 48.2 °F - 32.0 °F 54% 29.95 in 10.0 mi NNW 12.7 mph 19.6 mph N/A   Scattered Clouds
7:15 PM 46.4 °F 39.8 °F 32.0 °F 57% 29.96 in 10.0 mi NNW 16.1 mph 21.9 mph N/A   Scattered Clouds
7:35 PM 46.4 °F 41.1 °F 32.0 °F 57% 29.96 in 10.0 mi NNW 11.5 mph 19.6 mph N/A   Clear
7:55 PM 46.4 °F 40.7 °F 32.0 °F 57% 29.96 in 10.0 mi NNW 12.7 mph 18.4 mph N/A   Clear
8:15 PM 46.4 °F 41.9 °F 32.0 °F 57% 29.96 in 10.0 mi NNW 9.2 mph - N/A   Clear
8:35 PM 44.6 °F 40.2 °F 32.0 °F 61% 29.97 in 10.0 mi NNW 8.1 mph - N/A   Clear
8:55 PM 44.6 °F 39.7 °F 32.0 °F 61% 29.97 in 10.0 mi NNW 9.2 mph - N/A   Clear
9:15 PM 42.8 °F 38.0 °F 32.0 °F 66% 29.98 in 10.0 mi NNW 8.1 mph 16.1 mph N/A   Clear
9:35 PM 42.8 °F 38.0 °F 30.2 °F 61% 29.99 in 10.0 mi NNW 8.1 mph - N/A   Clear
10:15 PM 41.0 °F 35.8 °F 30.2 °F 65% 30.00 in 10.0 mi NW 8.1 mph - N/A   Clear
10:35 PM 39.2 °F 34.2 °F 30.2 °F 70% 30.00 in 10.0 mi WNW 6.9 mph - N/A   Clear
10:55 PM 39.2 °F 33.0 °F 30.2 °F 70% 30.01 in 10.0 mi NW 9.2 mph - N/A   Clear
11:15 PM 39.2 °F 32.5 °F 30.2 °F 70% 30.00 in 10.0 mi NW 10.4 mph - N/A   Clear
11:35 PM 39.2 °F 33.0 °F 30.2 °F 70% 30.01 in 10.0 mi NW 9.2 mph - N/A   Clear
11:55 PM 37.4 °F 31.4 °F 28.4 °F 70% 30.01 in 10.0 mi NW 8.1 mph - N/A   Clear